| time (UTC) | temp F | wind direction | speed knots | gust knots | rain 1hr in | rain 24hr in | rain mn in | humidity % | barometer mb |
| 20260503185306 | 80 | 45 | 2.6 | 4.3 | 0.00 | 0.00 | 0.00 | 45 | 1009.9 |
| 20260503184806 | 79 | 23 | 2.6 | 4.3 | 0.00 | 0.00 | 0.00 | 46 | 1009.9 |
| 20260503184306 | 79 | 6 | 2.6 | 5.2 | 0.00 | 0.00 | 0.00 | 45 | 1009.9 |
| 20260503183806 | 79 | 53 | 3.5 | 7.8 | 0.00 | 0.00 | 0.00 | 47 | 1010.0 |
| 20260503182806 | 78 | 71 | 1.7 | 4.3 | 0.00 | 0.00 | 0.00 | 48 | 1010.1 |
| 20260503182306 | 77 | 51 | 1.7 | 7.8 | 0.00 | 0.00 | 0.00 | 49 | 1010.1 |
| 20260503181806 | 76 | 44 | 2.6 | 4.3 | 0.00 | 0.00 | 0.00 | 49 | 1010.2 |
| 20260503181307 | 77 | 134 | 1.7 | 5.2 | 0.00 | 0.00 | 0.00 | 49 | 1010.2 |
| 20260503180806 | 76 | 68 | 1.7 | 4.3 | 0.00 | 0.00 | 0.00 | 50 | 1010.2 |
| 20260503180306 | 76 | 43 | 1.7 | 4.3 | 0.00 | 0.00 | 0.00 | 50 | 1010.3 |
| 20260503175806 | 76 | 40 | 2.6 | 7.0 | 0.00 | 0.00 | 0.00 | 51 | 1010.3 |
| 20260503175306 | 76 | 76 | 2.6 | 8.7 | 0.00 | 0.00 | 0.00 | 51 | 1010.3 |
| 20260503174806 | 75 | 28 | 2.6 | 7.8 | 0.00 | 0.00 | 0.00 | 52 | 1010.4 |
| 20260503174306 | 74 | 38 | 1.7 | 4.3 | 0.00 | 0.00 | 0.00 | 52 | 1010.4 |
| 20260503173806 | 75 | 46 | 1.7 | 6.1 | 0.00 | 0.00 | 0.00 | 53 | 1010.4 |
| 20260503173306 | 74 | 94 | 1.7 | 5.2 | 0.00 | 0.00 | 0.00 | 54 | 1010.5 |
| 20260503172806 | 74 | 84 | 2.6 | 5.2 | 0.00 | 0.00 | 0.00 | 53 | 1010.5 |
| 20260503172306 | 73 | 83 | 3.5 | 7.0 | 0.00 | 0.00 | 0.00 | 53 | 1010.5 |
| 20260503171806 | 73 | 68 | 2.6 | 6.1 | 0.00 | 0.00 | 0.00 | 54 | 1010.6 |
| 20260503171305 | 73 | 62 | 2.6 | 7.0 | 0.00 | 0.00 | 0.00 | 54 | 1010.6 |
| 20260503170806 | 73 | 47 | 2.6 | 8.7 | 0.00 | 0.00 | 0.00 | 55 | 1010.8 |
| 20260503170306 | 73 | 26 | 2.6 | 7.0 | 0.00 | 0.00 | 0.00 | 57 | 1010.7 |
| 20260503150306 | 60 | 341 | 1.7 | 2.6 | 0.00 | 0.00 | 0.00 | 86 | 1011.2 |
| 20260503131305 | 52 | 183 | 0.0 | 0.0 | 0.00 | 0.00 | 0.00 | 95 | 1010.8 |
| 20260503130806 | 52 | 183 | 0.0 | 0.0 | 0.00 | 0.00 | 0.00 | 95 | 1010.8 |
| 20260503130305 | 52 | 183 | 0.0 | 0.0 | 0.00 | 0.00 | 0.00 | 95 | 1010.7 |
| 20260503110305 | 52 | 171 | 0.0 | 0.0 | 0.00 | 0.00 | 0.00 | 94 | 1011.0 |
| 20260503090305 | 54 | 171 | 0.0 | 0.9 | 0.00 | 0.00 | 0.00 | 92 | 1011.4 |
| 20260503081305 | 55 | 171 | 1.7 | 2.6 | 0.00 | 0.00 | 0.00 | 91 | 1011.5 |
| 20260503080805 | 55 | 171 | 0.9 | 1.7 | 0.00 | 0.00 | 0.00 | 91 | 1011.5 |
| 20260503080306 | 55 | 171 | 0.0 | 2.6 | 0.00 | 0.00 | 0.00 | 91 | 1011.5 |
| 20260503072306 | 56 | 171 | 0.0 | 0.9 | 0.00 | 0.00 | 0.00 | 90 | 1011.5 |
| 20260503071804 | 56 | 171 | 0.9 | 1.7 | 0.00 | 0.00 | 0.00 | 89 | 1011.6 |
| 20260503071305 | 57 | 171 | 0.9 | 1.7 | 0.00 | 0.00 | 0.00 | 89 | 1011.6 |
| 20260503070818 | 57 | 171 | 1.7 | 2.6 | 0.00 | 0.00 | 0.00 | 89 | 1011.6 |
| 20260503070305 | 57 | 171 | 0.0 | 1.7 | 0.00 | 0.00 | 0.00 | 88 | 1011.6 |
| 20260503060304 | 59 | 171 | 0.9 | 1.7 | 0.00 | 0.00 | 0.00 | 85 | 1011.6 |
| 20260503054805 | 60 | 155 | 0.9 | 1.7 | 0.00 | 0.00 | 0.00 | 84 | 1011.8 |
| 20260503054305 | 60 | 155 | 0.0 | 2.6 | 0.00 | 0.00 | 0.00 | 84 | 1011.6 |
| 20260503053805 | 60 | 155 | 1.7 | 2.6 | 0.00 | 0.00 | 0.00 | 83 | 1011.7 |
| 20260503053304 | 61 | 155 | 0.9 | 2.6 | 0.00 | 0.00 | 0.00 | 82 | 1011.7 |
| 20260503052805 | 61 | 158 | 1.7 | 2.6 | 0.00 | 0.00 | 0.00 | 82 | 1011.6 |
| 20260503052306 | 61 | 219 | 1.7 | 2.6 | 0.00 | 0.00 | 0.00 | 81 | 1011.5 |
| 20260503051804 | 62 | 349 | 0.9 | 1.7 | 0.00 | 0.00 | 0.00 | 80 | 1011.5 |
| 20260503051305 | 62 | 349 | 0.0 | 1.7 | 0.00 | 0.00 | 0.00 | 79 | 1011.5 |
| 20260503050805 | 63 | 348 | 0.9 | 1.7 | 0.00 | 0.00 | 0.00 | 79 | 1011.5 |
| 20260503050304 | 63 | 348 | 1.7 | 2.6 | 0.00 | 0.00 | 0.00 | 79 | 1011.5 |
| 20260503045805 | 63 | 5 | 0.9 | 2.6 | 0.00 | 0.00 | 0.00 | 78 | 1011.6 |
| 20260503045305 | 63 | 5 | 1.7 | 2.6 | 0.00 | 0.00 | 0.00 | 78 | 1011.5 |
| 20260503044804 | 63 | 19 | 1.7 | 2.6 | 0.00 | 0.00 | 0.00 | 78 | 1011.6 |
| 20260503044305 | 63 | 40 | 0.9 | 2.6 | 0.00 | 0.00 | 0.00 | 77 | 1011.8 |
| 20260503043804 | 63 | 40 | 1.7 | 2.6 | 0.00 | 0.00 | 0.00 | 77 | 1011.5 |
| 20260503043304 | 63 | 341 | 0.9 | 2.6 | 0.00 | 0.00 | 0.00 | 77 | 1011.3 |
| 20260503042804 | 63 | 340 | 1.7 | 2.6 | 0.00 | 0.00 | 0.00 | 77 | 1011.3 |
| 20260503041805 | 64 | 348 | 1.7 | 2.6 | 0.00 | 0.00 | 0.00 | 77 | 1011.3 |
| 20260503041305 | 63 | 355 | 1.7 | 2.6 | 0.00 | 0.00 | 0.00 | 77 | 1011.2 |
| 20260503040805 | 63 | 348 | 0.9 | 2.6 | 0.00 | 0.00 | 0.00 | 78 | 1011.2 |
| 20260503040304 | 63 | 355 | 1.7 | 2.6 | 0.00 | 0.00 | 0.00 | 78 | 1011.1 |
| 20260503035805 | 63 | 356 | 2.6 | 2.6 | 0.00 | 0.00 | 0.00 | 78 | 1011.2 |
| 20260503035305 | 63 | 73 | 1.7 | 2.6 | 0.00 | 0.00 | 0.00 | 78 | 1011.3 |
| 20260503034806 | 63 | 74 | 0.9 | 1.7 | 0.00 | 0.00 | 0.00 | 78 | 1011.3 |
| 20260503033804 | 63 | 311 | 0.9 | 0.9 | 0.00 | 0.00 | 0.00 | 78 | 1011.3 |
| 20260503033305 | 64 | 311 | 0.0 | 0.9 | 0.00 | 0.00 | 0.00 | 77 | 1011.2 |
| 20260503032308 | 64 | 311 | 0.9 | 1.7 | 0.00 | 0.00 | 0.00 | 76 | 1011.0 |
| 20260503031807 | 64 | 311 | 0.9 | 1.7 | 0.00 | 0.00 | 0.00 | 75 | 1011.0 |
| 20260503031307 | 65 | 311 | 0.0 | 0.9 | 0.00 | 0.00 | 0.00 | 74 | 1011.0 |
| 20260503030807 | 65 | 311 | 0.9 | 2.6 | 0.00 | 0.00 | 0.00 | 74 | 1010.9 |
| 20260503030307 | 65 | 312 | 1.7 | 2.6 | 0.00 | 0.00 | 0.00 | 74 | 1010.8 |
| 20260503025807 | 65 | 0 | 1.7 | 2.6 | 0.00 | 0.00 | 0.00 | 74 | 1010.9 |
| 20260503025307 | 65 | 298 | 0.9 | 2.6 | 0.00 | 0.00 | 0.00 | 74 | 1010.9 |
| 20260503024807 | 65 | 298 | 0.9 | 2.6 | 0.00 | 0.00 | 0.00 | 73 | 1011.1 |
| 20260503024307 | 65 | 228 | 1.7 | 2.6 | 0.00 | 0.00 | 0.00 | 73 | 1011.2 |
| 20260503023307 | 65 | 224 | 0.9 | 2.6 | 0.00 | 0.00 | 0.00 | 73 | 1011.1 |
| 20260503022807 | 65 | 148 | 1.7 | 7.8 | 0.00 | 0.00 | 0.00 | 73 | 1011.3 |
| 20260503022307 | 65 | 172 | 4.3 | 10.4 | 0.00 | 0.00 | 0.00 | 73 | 1011.5 |
| 20260503021307 | 65 | 163 | 5.2 | 10.4 | 0.00 | 0.00 | 0.00 | 72 | 1011.7 |
| 20260503020307 | 66 | 177 | 7.0 | 13.9 | 0.00 | 0.00 | 0.00 | 72 | 1011.7 |
| 20260503015307 | 66 | 176 | 6.1 | 10.4 | 0.00 | 0.00 | 0.00 | 73 | 1011.7 |
| 20260503014807 | 66 | 180 | 3.5 | 6.1 | 0.00 | 0.00 | 0.00 | 72 | 1011.2 |
| 20260503014307 | 67 | 145 | 4.3 | 8.7 | 0.00 | 0.00 | 0.00 | 72 | 1011.0 |
| 20260503013807 | 67 | 185 | 2.6 | 7.8 | 0.00 | 0.00 | 0.00 | 72 | 1010.9 |
| 20260503012808 | 68 | 199 | 2.6 | 6.1 | 0.00 | 0.00 | 0.00 | 66 | 1010.8 |
| 20260503012307 | 68 | 197 | 1.7 | 2.6 | 0.00 | 0.00 | 0.00 | 66 | 1010.8 |
| 20260503011307 | 69 | 210 | 0.9 | 1.7 | 0.00 | 0.00 | 0.00 | 66 | 1010.7 |
| 20260503010307 | 69 | 194 | 0.9 | 2.6 | 0.00 | 0.00 | 0.00 | 65 | 1010.6 |
| 20260503005807 | 68 | 196 | 0.9 | 2.6 | 0.00 | 0.00 | 0.00 | 66 | 1010.6 |
| 20260503005307 | 68 | 196 | 1.7 | 2.6 | 0.00 | 0.00 | 0.00 | 65 | 1010.6 |
| 20260503004307 | 69 | 229 | 0.9 | 2.6 | 0.00 | 0.00 | 0.00 | 64 | 1010.6 |
| 20260503003807 | 69 | 246 | 1.7 | 4.3 | 0.00 | 0.00 | 0.00 | 66 | 1010.6 |
| 20260503003307 | 69 | 236 | 2.6 | 2.6 | 0.00 | 0.00 | 0.00 | 64 | 1010.6 |
| 20260503002807 | 69 | 244 | 1.7 | 2.6 | 0.00 | 0.00 | 0.00 | 65 | 1010.6 |
| 20260503002307 | 69 | 291 | 1.7 | 2.6 | 0.00 | 0.00 | 0.00 | 66 | 1010.7 |
| 20260503001807 | 68 | 294 | 2.6 | 5.2 | 0.00 | 0.00 | 0.00 | 66 | 1010.7 |
| 20260503001307 | 68 | 303 | 2.6 | 4.3 | 0.00 | 0.00 | 0.00 | 65 | 1010.8 |
| 20260503000307 | 69 | 245 | 2.6 | 5.2 | 0.00 | 0.00 | 0.00 | 64 | 1010.9 |
| 20260502235807 | 69 | 236 | 1.7 | 2.6 | 0.00 | 0.00 | 0.00 | 65 | 1010.8 |
| 20260502234807 | 68 | 195 | 1.7 | 5.2 | 0.00 | 0.00 | 0.00 | 66 | 1010.9 |
| 20260502234307 | 68 | 261 | 0.9 | 5.2 | 0.00 | 0.00 | 0.00 | 65 | 1010.9 |
| 20260502233807 | 68 | 260 | 3.5 | 5.2 | 0.00 | 0.00 | 0.00 | 65 | 1010.9 |
| 20260502233308 | 69 | 259 | 1.7 | 6.1 | 0.00 | 0.00 | 0.00 | 65 | 1011.0 |
| 20260502232807 | 68 | 192 | 2.6 | 5.2 | 0.00 | 0.00 | 0.00 | 66 | 1011.1 |
| 20260502232307 | 69 | 240 | 2.6 | 7.0 | 0.00 | 0.00 | 0.00 | 66 | 1011.2 |
| 20260502231807 | 69 | 205 | 1.7 | 4.3 | 0.00 | 0.00 | 0.00 | 65 | 1011.2 |
| 20260502231307 | 68 | 212 | 1.7 | 5.2 | 0.00 | 0.00 | 0.00 | 66 | 1011.3 |
| 20260502230306 | 67 | 215 | 2.6 | 6.1 | 0.00 | 0.00 | 0.00 | 68 | 1011.6 |
| 20260502225807 | 67 | 288 | 1.7 | 4.3 | 0.00 | 0.00 | 0.00 | 68 | 1011.6 |
| 20260502225306 | 66 | 271 | 2.6 | 7.8 | 0.00 | 0.00 | 0.00 | 68 | 1011.7 |
| 20260502224807 | 66 | 283 | 2.6 | 4.3 | 0.00 | 0.00 | 0.00 | 67 | 1011.8 |
| 20260502224307 | 67 | 243 | 2.6 | 6.1 | 0.00 | 0.00 | 0.00 | 67 | 1011.8 |
| 20260502223807 | 67 | 221 | 1.7 | 4.3 | 0.00 | 0.00 | 0.00 | 67 | 1011.9 |
| 20260502223306 | 67 | 314 | 2.6 | 6.1 | 0.00 | 0.00 | 0.00 | 67 | 1011.9 |
| 20260502222807 | 67 | 319 | 2.6 | 5.2 | 0.00 | 0.00 | 0.00 | 68 | 1012.0 |
| 20260502222307 | 66 | 264 | 2.6 | 6.1 | 0.00 | 0.00 | 0.00 | 66 | 1012.0 |
| 20260502221807 | 67 | 244 | 4.3 | 6.1 | 0.00 | 0.00 | 0.00 | 66 | 1012.0 |
| 20260502221306 | 67 | 233 | 1.7 | 5.2 | 0.00 | 0.00 | 0.00 | 68 | 1012.1 |
| 20260502220307 | 67 | 273 | 1.7 | 4.3 | 0.00 | 0.00 | 0.00 | 67 | 1012.2 |
| 20260502215807 | 66 | 1 | 1.7 | 4.3 | 0.00 | 0.00 | 0.00 | 68 | 1012.3 |
| 20260502215307 | 65 | 268 | 1.7 | 4.3 | 0.00 | 0.00 | 0.00 | 68 | 1012.4 |
| 20260502214807 | 65 | 261 | 2.6 | 7.0 | 0.00 | 0.00 | 0.00 | 68 | 1012.5 |
| 20260502214307 | 65 | 268 | 2.6 | 6.1 | 0.00 | 0.00 | 0.00 | 68 | 1012.6 |
| 20260502213306 | 64 | 46 | 0.9 | 2.6 | 0.00 | 0.00 | 0.00 | 69 | 1012.7 |
| 20260502212807 | 63 | 192 | 0.9 | 2.6 | 0.00 | 0.00 | 0.00 | 71 | 1012.8 |
| 20260502212307 | 63 | 356 | 2.6 | 6.1 | 0.00 | 0.00 | 0.00 | 71 | 1012.9 |
| 20260502211807 | 63 | 4 | 3.5 | 7.0 | 0.00 | 0.00 | 0.00 | 70 | 1012.9 |
| 20260502211307 | 64 | 14 | 0.9 | 2.6 | 0.00 | 0.00 | 0.00 | 70 | 1013.0 |
| 20260502210807 | 61 | 214 | 2.6 | 6.1 | 0.00 | 0.00 | 0.00 | 74 | 1013.0 |
| 20260502210307 | 61 | 146 | 4.3 | 6.1 | 0.00 | 0.00 | 0.00 | 73 | 1013.1 |
| 20260502205807 | 61 | 186 | 3.5 | 6.1 | 0.00 | 0.00 | 0.00 | 73 | 1013.3 |
| 20260502205307 | 61 | 202 | 3.5 | 5.2 | 0.00 | 0.00 | 0.00 | 75 | 1013.3 |
| 20260502204806 | 61 | 116 | 2.6 | 5.2 | 0.00 | 0.00 | 0.00 | 75 | 1013.4 |
| 20260502204306 | 61 | 43 | 2.6 | 5.2 | 0.00 | 0.00 | 0.00 | 74 | 1013.5 |
| 20260502203807 | 61 | 339 | 1.7 | 5.2 | 0.00 | 0.00 | 0.00 | 74 | 1013.6 |
| 20260502203306 | 60 | 232 | 1.7 | 2.6 | 0.00 | 0.00 | 0.00 | 76 | 1013.7 |
| 20260502202806 | 59 | 174 | 1.7 | 2.6 | 0.00 | 0.00 | 0.00 | 76 | 1013.8 |
| 20260502202306 | 59 | 356 | 1.7 | 2.6 | 0.00 | 0.00 | 0.00 | 77 | 1013.9 |
| 20260502201807 | 59 | 291 | 4.3 | 6.1 | 0.00 | 0.00 | 0.00 | 76 | 1014.0 |
| 20260502201306 | 58 | 298 | 1.7 | 2.6 | 0.00 | 0.00 | 0.00 | 78 | 1014.0 |
| 20260502200806 | 59 | 254 | 1.7 | 2.6 | 0.00 | 0.00 | 0.00 | 77 | 1014.1 |
| 20260502200307 | 58 | 192 | 1.7 | 4.3 | 0.00 | 0.00 | 0.00 | 79 | 1014.2 |
| 20260502195806 | 58 | 168 | 1.7 | 2.6 | 0.00 | 0.00 | 0.00 | 78 | 1014.2 |
| 20260502195306 | 57 | 215 | 0.9 | 2.6 | 0.00 | 0.00 | 0.00 | 79 | 1014.3 |
| 20260502194807 | 57 | 349 | 1.7 | 7.0 | 0.00 | 0.00 | 0.00 | 79 | 1014.3 |
| 20260502194307 | 56 | 266 | 2.6 | 6.1 | 0.00 | 0.00 | 0.00 | 80 | 1014.4 |
| 20260502193806 | 57 | 272 | 4.3 | 7.8 | 0.00 | 0.00 | 0.00 | 80 | 1014.3 |
| 20260502193306 | 56 | 340 | 3.5 | 8.7 | 0.00 | 0.00 | 0.00 | 80 | 1014.4 |
| 20260502192807 | 56 | 302 | 0.9 | 4.3 | 0.00 | 0.00 | 0.00 | 81 | 1014.5 |
| 20260502192306 | 56 | 295 | 2.6 | 6.1 | 0.00 | 0.00 | 0.00 | 82 | 1014.3 |
| 20260502191807 | 55 | 286 | 5.2 | 7.8 | 0.00 | 0.00 | 0.00 | 82 | 1014.4 |
| 20260502190806 | 55 | 265 | 2.6 | 7.0 | 0.00 | 0.00 | 0.00 | 83 | 1014.8 |